Вернуться в каталог

STARLINK-2266

АктивенСвязьVLEO
NORAD 47997·PAYLOAD·🇺🇸 United States

Запущен Mar 24, 2021 с Cape Canaveral Space Force Station

Loading…

Ближайшие Пролёты (ближайшие 24 часа)

TLE

СвежийSource: CelesTrak SupGP

Эпоха: Sep 15, 2026, 02:28 UTC

1 47997C 21024W   26258.10326389  .00048502  00000+0  15599-2 0  2587
2 47997  53.1582 145.2826 0001383  88.5776  72.3294 15.31673812    11

Отслеживайте STARLINK-2266 в реальном времени с AllMySat

Download on the App Store